{"data":{"norad_id":59180,"intl_designator":"2024-045C","name":"STARLINK-31395","alt_names":[],"object_type":"PAYLOAD","status":"ACTIVE","operator":null,"country":"US","launch_date":"2024-03-10","launch_site_code":"AFETR","launch_vehicle":null,"mission":null,"orbit_class":"UNKNOWN","rcs_meters":null,"size_class":null,"mass_kg":null,"dimensions":null,"purposes":["comms"],"wikipedia_slug":null,"has_3d_model":false,"image_url":null,"decayed_at":null,"tle_current":{"epoch":"2026-09-19T19:17:07.254816Z","epoch_age_seconds":219031,"freshness":"STALE","line1":"1 59180U 24045C   26262.80355619  .00000933  00000+0  43432-4 0  9997","line2":"2 59180  43.0037  76.7183 0001213 277.7047  82.3667 15.27580513142843","mean_motion":15.27580513,"eccentricity":0.0001213,"inclination_deg":43.0037,"raan_deg":76.7183,"arg_perigee_deg":277.7047,"mean_anomaly_deg":82.3667,"bstar":4.3432e-5,"rev_number":14284,"period_min":94.266717056504,"perigee_km":482.21529824641,"apogee_km":483.87982162065,"semimajor_km":6861.1845599335,"source":"CELESTRAK","updated_at":"2026-09-21T09:00:34.062011Z"}}}